This demonstration page uses our WeatherBlox Daily Observations layout. Learn more.

Left ArrowRight Arrow

39.51506, -84.39828

Hourly Observations for February 23, 2018

Temp ( °F °C ) Dew Point ( °F °C ) Humidity (%) Winds ( mph kmh ) Pressure ( in mb ) Visibility ( mi km ) Precip ( " mm )
12:15 am 00:15 Cloudy 44 6.9 44 6.6 98 98 NNE 3 6 30.42 1030 2 3 0.00 0.00
12:35 am 00:35 Cloudy 44 6.8 44 6.6 99 99 Calm 30.39 1029 1 2 0.00 0.00
12:55 am 00:55 Cloudy 44 6.9 44 6.7 99 99 Calm 30.36 1028 1 2 0.00 0.00
1:15 am 01:15 Cloudy 44 6.9 44 6.7 99 99 ENE 3 6 30.36 1028 1 2 0.00 0.00
1:35 am 01:35 Cloudy 44 6.9 44 6.8 99 99 NE 3 6 30.36 1028 1 2 0.00 0.00
1:55 am 01:55 Cloudy 44 6.9 44 6.8 99 99 Calm 30.33 1027 1 2 0.00 0.00
2:15 am 02:15 Cloudy 45 7 44 6.9 99 99 Calm 30.33 1027 1 2 0.00 0.00
2:35 am 02:35 Cloudy 45 7 44 6.9 99 99 ENE 3 6 30.33 1027 1 2 0.00 0.00
2:55 am 02:55 Cloudy 45 7.2 45 7.1 99 99 Calm 30.33 1027 1 2 0.00 0.00
3:15 am 03:15 Cloudy 45 7.4 45 7.3 99 99 ESE 3 6 30.33 1027 2 2 0.00 0.00
3:35 am 03:35 Cloudy 45 7.3 45 7.1 99 99 Calm 30.30 1026 1 2 0.00 0.00
3:55 am 03:55 Cloudy 45 7.4 45 7.3 99 99 SSE 3 6 30.30 1026 1 2 0.01 0.25
4:15 am 04:15 Cloudy 46 7.5 45 7.4 99 99 SSE 3 6 30.30 1026 3 4 0.01 0.25
4:35 am 04:35 Cloudy 46 7.6 46 7.5 99 99 E 3 6 30.27 1025 4 6 0.03 0.76
4:55 am 04:55 Cloudy 46 7.7 46 7.5 99 99 SSE 3 6 30.27 1025 4 6 0.07 1.78
5:15 am 05:15 Cloudy 46 7.9 46 7.6 98 98 SSE 5 7 30.27 1025 5 8 0.03 0.76
5:35 am 05:35 Cloudy 47 8.1 46 7.8 98 98 SSW 3 6 30.27 1025 5 8 0.06 1.52
5:55 am 05:55 Cloudy 47 8.4 46 8 97 97 SE 3 6 30.24 1024 4 6 0.11 2.79
6:15 am 06:15 Cloudy 47 8.6 47 8.2 97 97 SSW 6 9 30.24 1024 5 8 0.03 0.76
6:35 am 06:35 Cloudy 48 9 47 8.6 97 97 S 8 13 30.24 1024 4 6 0.08 2.03
6:55 am 06:55 Cloudy 49 9.4 48 9 97 97 S 5 7 30.21 1023 5 8 0.11 2.79
7:15 am 07:15 Cloudy 50 10 49 9.7 98 98 S 10 17 30.18 1022 7 11 0.03 0.76
7:35 am 07:35 Cloudy 51 10.5 50 10.1 97 97 S 8 13 30.18 1022 10 16 0.03 0.76
7:55 am 07:55 Cloudy 52 11 51 10.6 97 97 S 9 15 30.21 1023 10 16 0.03 0.76
8:15 am 08:15 Cloudy 52 11 51 10.6 97 97 SSW 5 7 30.21 1023 7 11 0.00 0.00
8:35 am 08:35 Cloudy 54 12.4 54 12.2 99 99 SSW 12 19 30.21 1023 7 11 0.00 0.00
8:55 am 08:55 Cloudy 56 13.1 54 12.4 96 96 SSW 13 20 30.21 1023 7 11 0.00 0.00
9:15 am 09:15 Cloudy 55 13 54 12.4 96 96 SW 12 19 30.21 1023 10 16 0.00 0.00
9:35 am 09:35 Cloudy 55 12.8 54 12.2 96 96 S 7 11 30.21 1023 10 16 0.00 0.00
9:55 am 09:55 Cloudy 56 13.1 54 12.4 96 96 SSW 9 15 30.21 1023 10 16 0.00 0.00
10:15 am 10:15 Cloudy 56 13.4 55 12.8 96 96 SSW 7 11 30.21 1023 10 16 0.00 0.00
10:35 am 10:35 Cloudy 57 13.9 56 13.2 96 96 SSW 8 13 30.21 1023 10 16 0.00 0.00
10:55 am 10:55 Cloudy 59 14.9 58 14.3 96 96 SW 14 22 30.21 1023 3 5 0.00 0.00
11:15 am 11:15 Cloudy 60 15.3 58 14.6 96 96 SW 17 28 30.21 1023 5 8 0.00 0.00
11:35 am 11:35 Cloudy 60 15.4 58 14.7 96 96 SW 16 26 30.21 1023 5 8 0.01 0.25
11:55 am 11:55 Cloudy 60 15.6 59 15 96 96 SW 16 26 30.24 1024 3 5 0.01 0.25
12:15 pm 12:15 Cloudy 60 15.8 59 15.2 96 96 SW 16 26 30.24 1024 2 3 0.00 0.00
12:35 pm 12:35 Cloudy 61 16 60 15.4 96 96 SW 13 20 30.21 1023 7 11 0.00 0.00
12:55 pm 12:55 Cloudy 61 16.1 60 15.6 97 97 SW 14 22 30.21 1023 3 4 0.00 0.00
1:15 pm 13:15 Cloudy 61 16.2 60 15.7 97 97 WSW 10 17 30.21 1023 2 3 0.00 0.00
1:35 pm 13:35 Cloudy 61 16.2 60 15.8 97 97 SW 9 15 30.21 1023 1 2 0.00 0.00
1:55 pm 13:55 Cloudy 61 16.3 61 16 98 98 WSW 12 19 30.21 1023 2 3 0.00 0.00
2:15 pm 14:15 Cloudy 61 16 60 15.3 96 96 W 10 17 30.21 1023 7 11 0.00 0.00
2:35 pm 14:35 Cloudy 61 16 59 14.8 93 93 WNW 13 20 30.21 1023 5 8 0.00 0.00
2:55 pm 14:55 Mostly Cloudy 60 15.8 59 14.9 94 94 WSW 8 13 30.21 1023 10 16 0.01 0.25
3:15 pm 15:15 Partly Cloudy 61 15.9 58 14.7 93 93 WSW 10 17 30.21 1023 10 16 0.00 0.00
3:35 pm 15:35 Sunny 60 15.6 58 14.3 92 92 W 8 13 30.21 1023 10 16 0.00 0.00
3:55 pm 15:55 Cloudy 60 15.5 57 14.1 91 91 W 8 13 30.21 1023 10 16 0.00 0.00
4:15 pm 16:15 Cloudy 60 15.3 57 13.8 91 91 W 10 17 30.21 1023 10 16 0.00 0.00
4:35 pm 16:35 Cloudy 59 15.2 56 13.5 90 90 W 9 15 30.21 1023 10 16 0.00 0.00
4:55 pm 16:55 Cloudy 59 15.1 56 13.4 90 90 WSW 9 15 30.21 1023 10 16 0.00 0.00
5:15 pm 17:15 Mostly Cloudy 59 15 56 13.1 89 89 WSW 9 15 30.24 1024 10 16 0.00 0.00
5:35 pm 17:35 Partly Cloudy 59 14.8 55 12.8 88 88 WSW 8 13 30.24 1024 10 16 0.00 0.00
5:55 pm 17:55 Partly Cloudy 57 14.1 55 12.6 91 91 SW 7 11 30.21 1023 10 16 0.00 0.00
6:15 pm 18:15 Partly Cloudy 57 13.7 54 12.3 91 91 W 6 9 30.24 1024 10 16 0.00 0.00
6:35 pm 18:35 Mostly Cloudy 57 13.8 54 12.2 90 90 WSW 7 11 30.24 1024 10 16 0.00 0.00
6:55 pm 18:55 Clear 56 13.4 53 11.8 90 90 SW 5 7 30.21 1023 10 16 0.00 0.00
7:15 pm 19:15 Mostly Cloudy 56 13.1 54 12 93 93 SSW 8 13 30.24 1024 10 16 0.00 0.00
7:35 pm 19:35 Partly Cloudy 56 13.4 53 11.9 91 91 W 5 7 30.24 1024 10 16 0.00 0.00
7:55 pm 19:55 Partly Cloudy 55 12.6 53 11.4 92 92 W 6 9 30.24 1024 10 16 0.00 0.00
8:15 pm 20:15 Clear 54 12.1 52 11.1 94 94 WSW 3 6 30.21 1023 10 16 0.00 0.00
8:35 pm 20:35 Clear 53 11.5 51 10.7 95 95 Calm 30.21 1023 10 16 0.00 0.00
8:55 pm 20:55 Clear 52 11.3 51 10.5 95 95 S 6 9 30.21 1023 10 16 0.00 0.00
9:15 pm 21:15 Clear 51 10.8 51 10.4 97 97 NNW 3 6 30.21 1023 10 16 0.00 0.00
9:35 pm 21:35 Clear 51 10.8 50 10.2 96 96 NNE 3 6 30.21 1023 10 16 0.00 0.00
9:55 pm 21:55 Partly Cloudy 52 11 51 10.5 97 97 Calm 30.24 1024 10 16 0.00 0.00
10:15 pm 22:15 Cloudy 53 11.4 51 10.6 95 95 Calm 30.21 1023 10 16 0.00 0.00
10:35 pm 22:35 Cloudy 53 11.4 51 10.4 94 94 Calm 30.21 1023 10 16 0.00 0.00
10:55 pm 22:55 Mostly Cloudy 51 10.8 50 10 95 95 Calm 30.21 1023 10 16 0.00 0.00
11:15 pm 23:15 Mostly Cloudy 52 11.2 51 10.3 94 94 N 3 6 30.21 1023 10 16 0.00 0.00
11:35 pm 23:35 Cloudy 52 11.2 50 9.9 92 92 N 6 9 30.21 1023 10 16 0.00 0.00
11:55 pm 23:55 Cloudy 52 10.9 49 9.6 92 92 NNE 8 13 30.21 1023 10 16 0.00 0.00

Powered by AerisWeather